Location: Blanot
(47.1713°N, 4.2340°E)
Time: 20:43:00
(UTC+00:00)

CENTAUR R/B - Pass Details

Date: 14 July 2020
Orbit: 756 x 1432 km, 63.5° (Epoch: 11 August)

Event Time Altitude Azimuth Distance (km) Brightness Sun altitude
Exits shadow 03:08:53 - 184° (S) 3,378 4.9 -7.8°
Rises 03:08:55 0° 184° (S) 3,367 4.9 -7.8°
Reaches altitude 10° 03:11:27 10° 174° (S) 2,511 4.3 -7.5°
Maximum altitude 03:16:33 32° 113° (ESE) 1,579 3.9 -6.9°
Drops below altitude 10° 03:22:25 10° 53° (NE) 2,912 6.8 -6.1°
Sets 03:25:33 0° 44° (NE) 3,990 8.4 -5.7°
